Location: New Frontier Mobile Home Park
(32.8448°N, 116.9675°W)
Time: 23:15:16
(UTC+00:00)

BREEZE-M DEB (TANK) - Pass Details

Date: 14 July 2020
Orbit: 558 x 17160 km, 49.5° (Epoch: 05 August)

Event Time Altitude Azimuth Distance (km) Brightness Sun altitude
Rises 03:45:25 0° 316° (NW) 3,135 8.6 -9.5°
Reaches altitude 10° 03:48:02 10° 330° (NNW) 1,913 6.7 -10.0°
Maximum altitude 03:51:10 29° 34° (NE) 1,066 4.3 -10.5°
Enters shadow 03:54:37 11° 96° (E) 2,148 5.3 -11.1°
